Location: Marsån
(66.4167°N, 22.2833°E)
Time: 10:28:41
(UTC+00:00)

USA 186 - Pass Details

Date: 24 February 2024
Orbit: 379 x 450 km, 97.1° (Epoch: 09 April)

Event Time Altitude Azimuth Distance (km) Brightness Sun altitude
Exits shadow 18:39:54 - 198° (SSW) 2,017 5.1 -20.0°
Reaches altitude 10° 18:41:03 10° 206° (SSW) 1,582 4.7 -20.1°
Maximum altitude 18:44:01 27° 266° (W) 902 4.0 -20.3°
Drops below altitude 10° 18:47:03 10° 327° (NNW) 1,613 5.5 -20.6°
Sets 18:49:19 0° 340° (NNW) 2,497 6.4 -20.8°
